Regional Weather Roundup
Issued by NWS Boston, MA

Home | Current Version | Previous Version | Text Only | Print | Product List | Glossary On
Versions: 1 2 3 4 5 6 7 8 9 10 11 12 13 14 15 16 17 18 19 20 21 22 23 24 25 26 27 28 29 30 31 32 33 34 35 36 37 38 39 40 41 42 43 44 45 46 47 48 49 50
000
ASUS41 KBOX 230510
RWRBOX

REGIONAL WEATHER ROUNDUP
NATIONAL WEATHER SERVICE TAUNTON MA
100 AM EDT FRI JUN 23 2017

NOTE:  "FAIR" INDICATES FEW OR NO CLOUDS BELOW 12,000 FEET WITH NO
SIGNIFICANT WEATHER AND/OR OBSTRUCTIONS TO VISIBILITY.

MAZALL-230600-
EASTERN MASSACHUSETTS

CITY           SKY/WX    TMP DP  RH WIND       PRES   REMARKS
BOSTON         CLOUDY    73  59  61 SW10      29.87F
BEVERLY        CLOUDY    68  59  73 SE3       29.87F
LAWRENCE       CLOUDY    74  58  57 S3        29.88F
BEDFORD        CLOUDY    70  58  65 S6        29.86F
BLUE HILL        N/A     70  55  59 SW13      29.88F
NORWOOD        CLOUDY    73  58  59 S7        29.87F
MARSHFIELD     PTCLDY    70  57  64 SW6       29.88F
PLYMOUTH       CLOUDY    68  55  63 CALM      29.91F
TAUNTON        MOCLDY    69  57  65 S5        29.89F
NEW BEDFORD    MOCLDY    65  60  84 SW3       29.90F
$$

MAZALL-230600-
CAPE COD AND THE ISLANDS

CITY           SKY/WX    TMP DP  RH WIND       PRES   REMARKS
FALMOUTH       CLOUDY    64  63  94 SW6       29.93F
HYANNIS        CLOUDY    67  61  81 SW9       29.90F
CHATHAM        PTCLDY    66  63  90 SW7       29.93S
PROVINCETOWN   PTCLDY    65  58  78 S9        29.90F
NANTUCKET      CLOUDY    63  62  97 SW7       29.93F
MARTHAS VNYRD  CLOUDY    66  61  84 SW6       29.92F
$$

MAZALL-230600-
CENTRAL AND WESTERN MASSACHUSETTS

CITY           SKY/WX    TMP DP  RH WIND       PRES   REMARKS
WORCESTER      CLOUDY    68  57  68 SW10      29.90F
FITCHBURG      CLOUDY    75  60  59 SE5       29.87
ORANGE         MOCLDY    71  61  70 S9        29.87F
SPRINGFIELD    CLOUDY    72  59  63 S8        29.86F
WESTFIELD      PTCLDY    70  61  73 S7          N/A
NORTH ADAMS    CLOUDY    68  60  75 VRB3      29.87F
PITTSFIELD     CLOUDY    64  60  87 S3        29.88F
$$

RIZALL-230600-
RHODE ISLAND

CITY           SKY/WX    TMP DP  RH WIND       PRES   REMARKS
PROVIDENCE     CLOUDY    69  60  73 S3        29.90F
NEWPORT        PTCLDY    66  64  93 S6        29.90F
BLOCK ISLAND   PTCLDY    67  65  93 SW13      29.91F
WESTERLY       CLOUDY    68  65  90 SW5       29.91F
$$

CTZALL-230600-
CONNECTICUT

CITY           SKY/WX    TMP DP  RH WIND       PRES   REMARKS
BRADLEY INTL   CLOUDY    71  60  68 S8        29.87F
HARTFORD       CLOUDY    71  62  73 S7        29.87F
BRIDGEPORT     PTCLDY    72  66  81 CALM      29.88F
DANBURY        CLOUDY    70  63  78 CALM      29.90F
GROTON         CLOUDY    67  63  87 S3        29.89F
NEW HAVEN      NOT AVBL
CHESTER        FAIR      68  68 100 SW6       29.90F
MERIDEN        CLOUDY    68  62  81 CALM      29.89F
WILLIMANTIC    CLOUDY    70  61  73 CALM      29.89F
OXFORD         CLEAR     70  61  73 S5        29.92F
$$

MEZ002-015-021-024-NHZ003-005-008-011-012-014-VTZ005-008-230600-
NORTHERN NEW ENGLAND

CITY           SKY/WX    TMP DP  RH WIND       PRES   REMARKS
PORTLAND ME    MOCLDY    61  55  81 CALM      29.87S
BANGOR ME      PTCLDY    59  55  87 CALM      29.87S
CONCORD NH     CLOUDY    65  59  81 CALM      29.87F
MANCHESTER NH  CLOUDY    71  58  63 CALM      29.85F
NASHUA NH      CLOUDY    69  62  78 CALM      29.87F
PORTSMOUTH NH  CLOUDY    65  59  81 CALM      29.85F
JAFFREY NH     MOCLDY    65  61  87 CALM      29.90F
KEENE NH       MOCLDY    66  62  87 CALM      29.87F
BURLINGTON VT  CLOUDY    72  56  57 S7        29.80F
MT. WASHINGTON MOCLDY    46  37  71 W35         N/A
$$

NYZ052-076-230600-
EASTERN NEW YORK

CITY           SKY/WX    TMP DP  RH WIND       PRES   REMARKS
ALBANY         CLOUDY    72  62  71 CALM      29.84F
NEW YORK CITY  CLOUDY    82  71  69 SW9       29.88F
$$

ANZALL-230600-
MARINE OBSERVATIONS

STATION/POSITION TIME  TEMP    WIND        PRES    VSBY  WAVE
                       AIR SEA DIR/SP/G                  HT/PER
                 (UTC) (F)     (DEG/KT/KT) (MB)    (MI)  (FT/S)
BOSTON BUOY      0450   63 59  180/  6/  8 1011.6F         1/10
BUZZARDS BAY     0400   65     240/ 11/ 11 1014.0R
NANTUCKET SOUND  0450      65              1013.1F         1
MASS BAY-STELLWA 0404   64 62  210/  6/  8 1011.3S         2/ 4
ISLE OF SHOALS   0400   70     190/ 15/ 16 1011.7S
S OF BLOCK IS    0455      63                N/A           2/ 6
$$

......................KEY.........................
  SKY/WX - SKY CONDITION/PRESENT WEATHER
  TMP    - TEMPERATURE IN FAHRENHEIT
  DWPT   - DEWPOINT IN FAHRENHEIT
  RH     - RELATIVE HUMIDITY IN PERCENT
  WIND   - DIRECTION AND SPEED IN MPH
  PRES   - MEAN SEA LEVEL PRESSURE IN INCHES OF HG
  WCI    - WIND CHILL INDEX
  VSB    - VISIBILITY IN MILES
  HX     - HEAT INDEX
  TC     - TEMPERATURE IN CELSIUS
  VRB    - VARIABLE WIND DIRECTION
  N/A    - NOT AVAILABLE



USA.gov is the U.S. government's official web portal to all federal, state and local government web resources and services.